TimeCST,TemperatureF,Dew PointF,Humidity,Sea Level PressureIn,VisibilityMPH,Wind Direction,Wind SpeedMPH,Gust SpeedMPH,PrecipitationIn,Events,Conditions,WindDirDegrees,DateUTC
12:01 AM,6.8,3.2,85,29.92,1.5,SE,4.6,-,N/A,,Overcast,140,2013-02-24 06:01:00
12:04 AM,6.8,3.2,85,29.92,0.8,SE,4.6,-,N/A,,Mist,140,2013-02-24 06:04:00
12:38 AM,6.8,3.2,85,29.92,0.2,SE,4.6,-,N/A,Fog,Light Freezing Fog,140,2013-02-24 06:38:00
12:48 AM,6.8,3.2,85,29.92,0.5,SE,4.6,-,N/A,Fog,Light Freezing Fog,130,2013-02-24 06:48:00
12:53 AM,6.1,3.9,91,29.98,0.5,SE,5.8,-,N/A,Fog,Light Freezing Fog,130,2013-02-24 06:53:00
1:37 AM,6.8,3.2,85,29.93,1.0,SSE,6.9,-,N/A,,Mist,150,2013-02-24 07:37:00
1:48 AM,6.8,3.2,85,29.93,0.8,SE,6.9,-,N/A,,Mist,140,2013-02-24 07:48:00
1:53 AM,6.1,3.9,91,30.00,0.8,SE,6.9,-,N/A,,Mist,140,2013-02-24 07:53:00
2:12 AM,6.8,3.2,85,29.93,1.5,SE,9.2,-,N/A,,Overcast,140,2013-02-24 08:12:00
2:46 AM,6.8,3.2,85,29.94,0.8,SSE,9.2,-,N/A,,Mist,150,2013-02-24 08:46:00
2:53 AM,6.1,3.9,91,30.00,0.8,SE,10.4,-,N/A,,Mist,140,2013-02-24 08:53:00
3:53 AM,7.0,3.9,87,30.00,0.8,South,5.8,-,0.00,,Mist,170,2013-02-24 09:53:00
4:04 AM,6.8,3.2,85,29.94,1.2,South,5.8,-,N/A,,Overcast,170,2013-02-24 10:04:00
4:50 AM,5.0,1.4,85,29.95,2.5,South,8.1,-,0.00,Snow,Light Snow,180,2013-02-24 10:50:00
4:53 AM,3.9,1.9,91,30.01,3.0,South,9.2,-,0.00,Snow,Light Snow,190,2013-02-24 10:53:00
5:53 AM,3.9,1.0,88,30.02,5.0,SSE,6.9,-,0.00,,Overcast,160,2013-02-24 11:53:00
6:53 AM,3.9,-0.0,84,30.02,6.0,SSE,10.4,-,0.00,,Mostly Cloudy,150,2013-02-24 12:53:00
7:53 AM,3.9,1.0,88,30.03,6.0,SSE,10.4,-,N/A,,Mostly Cloudy,150,2013-02-24 13:53:00
8:25 AM,3.2,1.4,92,29.96,9.0,SSE,8.1,-,N/A,,Mostly Cloudy,160,2013-02-24 14:25:00
8:53 AM,5.0,1.0,84,30.03,10.0,SSE,10.4,-,N/A,,Mostly Cloudy,160,2013-02-24 14:53:00
9:53 AM,7.0,3.9,87,30.05,10.0,South,8.1,-,N/A,,Mostly Cloudy,170,2013-02-24 15:53:00
10:53 AM,10.0,6.1,84,30.05,9.0,South,8.1,-,N/A,,Mostly Cloudy,170,2013-02-24 16:53:00
11:53 AM,12.9,9.0,84,30.05,10.0,SSE,8.1,-,N/A,,Clear,160,2013-02-24 17:53:00
12:53 PM,16.0,10.9,81,30.04,10.0,SSE,11.5,-,N/A,,Overcast,160,2013-02-24 18:53:00
1:53 PM,17.1,12.0,81,30.02,10.0,SSE,15.0,-,N/A,,Overcast,150,2013-02-24 19:53:00
2:53 PM,19.0,15.1,85,30.01,10.0,SSE,10.4,-,N/A,,Mostly Cloudy,160,2013-02-24 20:53:00
3:53 PM,19.9,16.0,85,30.01,10.0,South,10.4,-,N/A,,Overcast,170,2013-02-24 21:53:00
4:53 PM,19.9,16.0,85,30.02,10.0,South,10.4,-,N/A,,Overcast,170,2013-02-24 22:53:00
5:41 PM,19.4,15.8,86,29.97,10.0,South,12.7,-,N/A,,Overcast,170,2013-02-24 23:41:00
5:53 PM,19.9,15.1,81,30.04,10.0,South,10.4,-,N/A,,Overcast,170,2013-02-24 23:53:00
6:53 PM,19.9,16.0,85,30.04,10.0,South,9.2,-,N/A,,Overcast,170,2013-02-25 00:53:00
7:05 PM,19.4,15.8,86,29.98,10.0,South,11.5,-,N/A,,Overcast,170,2013-02-25 01:05:00
7:53 PM,21.0,17.1,85,30.05,10.0,South,11.5,-,N/A,,Overcast,180,2013-02-25 01:53:00
8:53 PM,21.9,18.0,85,30.04,10.0,SSW,6.9,-,N/A,,Overcast,200,2013-02-25 02:53:00
9:53 PM,23.0,19.9,88,30.04,9.0,West,5.8,-,N/A,,Overcast,260,2013-02-25 03:53:00
10:53 PM,24.1,19.9,84,30.04,10.0,West,6.9,-,N/A,,Overcast,260,2013-02-25 04:53:00
11:25 PM,23.0,19.4,86,29.99,10.0,West,5.8,-,N/A,,Overcast,270,2013-02-25 05:25:00
11:53 PM,19.0,16.0,88,30.04,9.0,WSW,6.9,-,N/A,,Partly Cloudy,240,2013-02-25 05:53:00